Location: Kra?nica
(53.4833°N, 14.6167°E)
Time: 19:47:28
(UTC+00:00)

USA 267 - Pass Details

Date: 23 May 2024
Orbit: 1100 x 1107 km, 123.0° (Epoch: 21 May)

Event Time Altitude Azimuth Distance (km) Brightness Sun altitude
Rises 00:13:42 0° 64° (ENE) 3,923 6.9 -14.1°
Reaches altitude 10° 00:16:11 10° 65° (ENE) 2,963 6.2 -14.0°
Maximum altitude 00:22:46 87° 156° (SSE) 1,109 3.2 -13.7°
Drops below altitude 10° 00:29:19 10° 245° (WSW) 2,957 5.1 -13.3°
Enters shadow 00:30:21 - 246° (WSW) 3,353 5.4 -13.3°
